Weather History for Abbeville, LA

Change the Weather History Date:

Saturday, January 19, 2013

  Actual Average (KARA) Record (KARA)
Temperature  
Mean Temperature 50 °F 53 °F  
Max Temperature 64 °F 63 °F 80 °F (1950)
Min Temperature 36 °F 43 °F 19 °F (1977)
Degree Days  
Heating Degree Days 15 13  
Month to date heating degree days 247  
Since 1 July heating degree days 794  
Cooling Degree Days 0 0  
Month to date cooling degree days 9  
Year to date cooling degree days 9  
Moisture  
Dew Point 46 °F    
Average Humidity 85    
Maximum Humidity 100    
Minimum Humidity 55    
Precipitation  
Precipitation 0.00 in 0.18 in 1.34 in (2008)
Month to date precipitation 3.17  
Year to date precipitation 3.17  
Sea Level Pressure  
Sea Level Pressure 30.31 in    
Wind  
Wind Speed 4 mph (SSE)    
Max Wind Speed 9 mph    
Max Gust Speed -    
Visibility 8 miles    
Events      
T = Trace of Precipitation, MM = Missing Value Source: NWS Daily Summary

Daily Weather History Graph

Daily Weather History Graph

Search for Another Location

Airport:

Trip Planner

Search our weather history database for the weather conditions in past years. The results will help you decide how hot, cold, wet, or windy it might be!

Date:

Astronomy

Jan. 19, 2013 Rise Set
Actual Time 7:04 AM CST 5:34 PM CST
Civil Twilight 6:38 AM CST 6:00 PM CST
Nautical Twilight 6:09 AM CST 6:29 PM CST
Astronomical Twilight 5:40 AM CST 6:58 PM CST
Moon 11:56 AM CST (1/19) 12:45 AM CST (1/19)
Length of Visible Light 11h 21m
Length of Day
10h 30m
First Quarter, 57% of the Moon is Illuminated
Jan 19
First Quarter
Jan 26
Full
Feb 3
Last Quarter
Feb 10
New
Feb 17
First Quarter

Hourly Weather History & Observations

Time (CST) Temp. Windchill Dew Point Humidity Pressure Visibility Wind Dir Wind Speed Gust Speed Precip Events Conditions
12:15 AM 37.4 °F 32.8 °F 37.4 °F 100% 30.38 in 0.8 mi SE 5.8 mph - N/A   Mist
12:35 AM 36.7 °F 32.0 °F 36.7 °F 100% 30.38 in 0.8 mi SE 5.8 mph - N/A   Mist
12:55 AM 37.8 °F 32.5 °F 37.8 °F 100% 30.39 in 1.2 mi SE 6.9 mph - N/A   Mist
1:15 AM 38.1 °F 33.7 °F 38.1 °F 100% 30.39 in 4.0 mi SE 5.8 mph - N/A   Clear
1:35 AM 38.3 °F - 38.3 °F 100% 30.38 in 7.0 mi Calm Calm - N/A   Clear
1:55 AM 38.5 °F 34.1 °F 38.5 °F 100% 30.38 in 1.0 mi SE 5.8 mph - N/A   Overcast
2:15 AM 37.6 °F - 37.6 °F 100% 30.37 in 4.0 mi Calm Calm - N/A   Overcast
2:35 AM 37.8 °F - 37.8 °F 100% 30.37 in 5.0 mi North - - N/A   Mostly Cloudy
2:55 AM 39.9 °F 35.8 °F 39.9 °F 100% 30.37 in 7.0 mi SE 5.8 mph - N/A   Overcast
3:15 AM 41.4 °F - 41.4 °F 100% 30.36 in 7.0 mi Calm Calm - N/A   Overcast
3:35 AM 42.3 °F 40.5 °F 42.3 °F 100% 30.36 in 7.0 mi East 3.5 mph - N/A   Overcast
3:55 AM 41.9 °F - 41.9 °F 100% 30.36 in 10.0 mi Calm Calm - N/A   Overcast
4:15 AM 41.9 °F - 41.9 °F 100% 30.36 in 10.0 mi Calm Calm - N/A   Overcast
4:35 AM 42.3 °F - 42.3 °F 100% 30.36 in 10.0 mi North - - N/A   Overcast
4:55 AM 41.5 °F - 41.5 °F 100% 30.36 in 5.0 mi North - - N/A   Overcast
5:15 AM 41.2 °F - 41.2 °F 100% 30.36 in 7.0 mi North - - N/A   Mostly Cloudy
5:35 AM 40.1 °F - 40.1 °F 100% 30.35 in 7.0 mi North - - N/A   Mostly Cloudy
6:55 AM 39.7 °F - 39.7 °F 100% 30.35 in 4.0 mi North - - N/A   Clear
7:15 AM 40.1 °F - 40.1 °F 100% 30.36 in 5.0 mi North - - N/A   Clear
7:55 AM 40.5 °F - 40.5 °F 100% 30.36 in 7.0 mi Calm Calm - N/A   Clear
8:15 AM 41.7 °F - 41.7 °F 100% 30.36 in 5.0 mi North - - N/A   Clear
8:35 AM 43.7 °F - 43.7 °F 100% 30.36 in 7.0 mi Calm Calm - N/A   Clear
9:35 AM 51.8 °F - 47.5 °F 85% 30.38 in 10.0 mi ESE 3.5 mph - N/A   Clear
9:55 AM 55.0 °F - 45.9 °F 71% 30.38 in 10.0 mi ESE 4.6 mph - N/A   Clear
10:15 AM 56.3 °F - 46.2 °F 69% 30.37 in 10.0 mi SE 9.2 mph - N/A   Clear
10:35 AM 55.9 °F - 46.0 °F 69% 30.37 in 10.0 mi SE 5.8 mph - N/A   Clear
10:55 AM 59.4 °F - 47.1 °F 64% 30.36 in 10.0 mi SE 5.8 mph - N/A   Clear
11:15 AM 60.6 °F - 47.8 °F 63% 30.35 in 10.0 mi SE 5.8 mph - N/A   Clear
11:35 AM 63.0 °F - 48.2 °F 59% 30.34 in 10.0 mi SSE 6.9 mph - N/A   Clear
11:55 AM 64.2 °F - 48.4 °F 56% 30.32 in 10.0 mi SSE 5.8 mph - N/A   Clear
12:15 PM 64.4 °F - 48.0 °F 55% 30.30 in 10.0 mi SE 5.8 mph - N/A   Clear
12:35 PM 64.2 °F - 48.4 °F 56% 30.29 in 10.0 mi SSE 5.8 mph - N/A   Clear
12:55 PM 64.2 °F - 47.5 °F 55% 30.28 in 10.0 mi South 8.1 mph - N/A   Clear
1:55 PM 64.9 °F - 48.9 °F 56% 30.26 in 10.0 mi South 6.9 mph - N/A   Clear
2:15 PM 63.0 °F - 48.2 °F 59% 30.25 in 10.0 mi SSW 8.1 mph - N/A   Clear
2:35 PM 63.1 °F - 47.3 °F 56% 30.25 in 10.0 mi West 5.8 mph - N/A   Clear
2:55 PM 64.6 °F - 48.2 °F 55% 30.25 in 10.0 mi SW 4.6 mph - N/A   Clear
3:15 PM 64.8 °F - 48.0 °F 55% 30.24 in 10.0 mi WSW 5.8 mph - N/A   Clear
3:35 PM 64.4 °F - 48.2 °F 56% 30.24 in 10.0 mi SW 4.6 mph - N/A   Clear
3:55 PM 64.4 °F - 48.6 °F 56% 30.24 in 10.0 mi Calm Calm - N/A   Clear
4:15 PM 64.4 °F - 49.1 °F 58% 30.24 in 10.0 mi Calm Calm - N/A   Clear
4:35 PM 64.0 °F - 49.8 °F 60% 30.24 in 10.0 mi SSE 4.6 mph - N/A   Clear
4:55 PM 62.1 °F - 49.8 °F 64% 30.24 in 10.0 mi SE 6.9 mph - N/A   Clear
5:15 PM 60.1 °F - 49.3 °F 67% 30.24 in 10.0 mi SE 5.8 mph - N/A   Clear
5:35 PM 58.1 °F - 49.3 °F 72% 30.24 in 10.0 mi SE 5.8 mph - N/A   Clear
5:55 PM 57.4 °F - 49.3 °F 74% 30.24 in 10.0 mi Calm Calm - N/A   Clear
6:15 PM 54.5 °F - 48.2 °F 79% 30.24 in 10.0 mi Calm Calm - N/A   Clear
6:35 PM 52.0 °F - 48.6 °F 88% 30.25 in 10.0 mi Calm Calm - N/A   Clear
6:55 PM 53.1 °F - 50.0 °F 89% 30.25 in 10.0 mi Calm Calm - N/A   Clear
7:15 PM 51.4 °F - 49.1 °F 92% 30.26 in 10.0 mi Calm Calm - N/A   Clear
7:35 PM 50.0 °F - 48.2 °F 94% 30.26 in 10.0 mi Calm Calm - N/A   Clear
7:55 PM 48.4 °F - 48.2 °F 99% 30.26 in 10.0 mi Calm Calm - N/A   Clear
8:15 PM 48.9 °F - 48.7 °F 99% 30.27 in 10.0 mi WNW 4.6 mph - N/A   Clear
8:35 PM 48.2 °F - 48.2 °F 100% 30.27 in 10.0 mi Calm Calm - N/A   Clear
8:55 PM 48.9 °F - 48.7 °F 99% 30.27 in 10.0 mi Calm Calm - N/A   Mostly Cloudy
9:15 PM 49.3 °F - 49.3 °F 100% 30.28 in 10.0 mi West 3.5 mph - N/A   Overcast
9:35 PM 50.2 °F - 49.5 °F 97% 30.27 in 10.0 mi Calm Calm - N/A   Overcast
9:55 PM 51.1 °F - 50.2 °F 97% 30.27 in 10.0 mi Calm Calm - N/A   Overcast
10:15 PM 51.4 °F - 51.3 °F 99% 30.28 in 10.0 mi SSE 3.5 mph - N/A   Overcast
10:35 PM 50.5 °F - 50.4 °F 99% 30.27 in 10.0 mi Calm Calm - N/A   Mostly Cloudy
10:55 PM 48.2 °F - 48.2 °F 100% 30.26 in 10.0 mi Calm Calm - N/A   Clear
11:15 PM 47.3 °F - 47.3 °F 100% 30.27 in 7.0 mi Calm Calm - N/A   Clear
11:35 PM 47.5 °F - 47.5 °F 100% 30.27 in 10.0 mi Calm Calm - N/A   Clear
11:55 PM 47.1 °F - 47.1 °F 100% 30.26 in 5.0 mi Calm Calm - N/A   Clear